Back to catalog

SL-6 R/B(2)

AliveHEO
NORAD 22192·ROCKET BODY·🇷🇺 Russia

Launched Oct 21, 1992 from Plesetsk Cosmodrome

Loading…

Next Passes (next 24 hours)

TLE

FreshSource: Space-Track

Epoch: Sep 14, 2026, 11:11 UTC

1 22192U 92069D   26257.46605525 -.00000708  00000-0  00000-0 0  9993
2 22192  68.5771  80.8630 6402393 350.2937   6.0953  2.02824576246150

Track SL-6 R/B(2) in real time with AllMySat

Download on the App Store